DECAYED

STARLINK-31376, 59524 (Decayed)

Orbit data source: Space-Track

STARLINK-31376, 59524 was a payload satellite owned by SpaceX/Seattle (US) in LEO that was launched on Wed, 17 Apr 2024 UTC via an FALCON 9 launch vehicle from the Air Force Eastern Test Range (AFETR). Payload-class satellites include a variety of spacecraft equipped with specific instruments for various scientific and technological missions. These include communications satellites like Starlink; space stations such as the ISS; scientific satellites like the Hubble; Earth observation satellites from companies like Planet Labs, Umbra, and HawkEye 360; GPS; miniature CubeSats for education and research; and military/defense satellites.

Not visible in the next 10 days
Identifier
59524, 2024-073P
Orbit
Decayed
Country
Flag of USUS
Related business
Manufacturer
SpaceX/Seattle
Mission
Decayed Commercial Communications
Bus & Motor
STARLINK V2M, Unknown motor
Mass
730 kg wet, ~700 kg dry
Launch date (UTC)
2024-04-17 (2 years ago)
Launch vehicle
FALCON 9
Launch site
Air Force Eastern Test Range (AFETR)
Object type
Payload
Rocket body
Debris
Shape & HBR
Box + 2 Pan, 17.7 m
Radar Cross Section
33.884 m², Large (>1 m²)

Expand to show TLE details & history
Last TLE update: 9 months ago

TLE from 9 months ago
0 STARLINK-31376
1 59524U 24073P   25257.31028510  .04124885  87353-5  22861-2 0  9996
2 59524  42.9809 210.1750 0033555 162.9848 197.2169 16.17001771 79477
Epoch: 2025-09-14T07:26Z
TLE epoch observation values (Epoch: 2025-09-14T07:26:48.632Z)
Latitude
-0.00002°
Longitude
104.94121°
Altitude
248.645 km
Speed
7.747 km/s
True Right ascension
14h 00m 41s
True Declination
0° 00' 00"
Sunlit
Object was in daylight at epoch
Visualization orbit readout
Latitude
Unknown
Longitude
Unknown
Altitude
Unknown
Speed
Unknown
Apparent Right ascension
Unknown
Apparent Declination
Unknown
Sunlit
N/A
Visualization observer readout
Local Sidereal Time
15:32:11
Azimuth
Unknown
Elevation
Unknown
Doppler factor
Unknown
Orbital elements
Apogee altitude
251.901 km
Perigee altitude
207.556 km
Semi-major axis
6,607.865 km
Eccentricity
0.00336
Inclination
42.9809°
RAAN
210.175°
Arg. of periapsis
162.9848°
True anomaly
197.10354°
Mean anomaly
197.2169°
Eccentric anomaly
197.16018°
Mean motion
4.04065 °/min
Orbital period
89.09 mins
BSTAR
0.0022861
Loading maneuver chart data...
Computing Atmospheric mass density...
Loading historical data...
Loading historical data...
Loading historical data...
Loading historical data...
Loading historical data...
Loading historical data...
Loading historical data...

Documentation

Showing up to 5 results
|